DIRECTV 9S

Last updated on Fri Oct 31 2025 00:02:45 GMT+0000 (Coordinated Universal Time)

1 29494U 06043A 25303.28616861 -.00000102 00000+0 00000+0 0 9994 2 29494 1.8225 83.6929 0002910 130.2737 186.7390 1.00271993 49076
UTC large
Height (km)
Speed (km/s)
/
Latitude / Longitude
Inclination (degrees)
Orbital Period (minutes)
Azimuth
Elevation
Range (km)
Doppler Factor

Next 0 passes for location: London (51.5072 / 0.1276)

Sorry there are no passes over London.